Location: El Portezuelo
(28.4984°N, 16.3589°W)
Time: 21:27:30
(UTC+00:00)

SMAP - Pass Details

Date: 20 January 2020
Orbit: 681 x 683 km, 98.1° (Epoch: 18 February)

Event Time Altitude Azimuth Distance (km) Brightness Sun altitude
Rises 06:48:49 0° 21° (NNE) 3,041 6.5 -15.3°
Reaches altitude 10° 06:51:10 10° 28° (NNE) 2,123 5.8 -14.8°
Maximum altitude 06:55:33 42° 99° (E) 974 4.5 -13.8°
Drops below altitude 10° 06:59:55 10° 170° (S) 2,112 5.9 -12.9°
Sets 07:02:15 0° 177° (S) 3,024 6.7 -12.4°
